Location: Newark
(49.9828°N, 3.1606°E)
Time: 11:41:55
(UTC+00:00)

X-37B - Visible Passes

Search period start: 08 March 2021 00:00
Search period end: 18 March 2021 00:00
Orbit: 383 x 391 km, 45.0° (Epoch: 27 February)

Date Brightness Start Highest point End Pass type
(mag) Time Alt. Az. Time Alt. Az. Time Alt. Az.
11 Mar 3.2 19:18:21 10° S 19:18:23 10° S 19:18:23 10° S visible
12 Mar 3.2 19:54:46 10° SW 19:55:23 14° SSW 19:55:23 14° SSW visible
13 Mar 2.5 18:57:01 10° SSW 18:59:11 17° SSE 18:59:58 16° SE visible
14 Mar 1.9 19:34:15 10° SW 19:36:45 27° S 19:36:45 27° S visible
15 Mar 2.2 18:36:16 10° SW 18:38:52 23° SSE 18:41:10 12° ESE visible
15 Mar 2.8 20:12:06 10° WSW 20:13:28 21° SW 20:13:28 21° SW visible
16 Mar 1.7 19:13:53 10° WSW 19:16:48 32° S 19:17:49 26° SE visible
17 Mar 1.9 19:51:54 10° WSW 19:54:25 30° SSW 19:54:25 30° SSW visible
